Regional Weather Roundup
Issued by NWS

Home | Current Version | Previous Version | Text Only | Print | Product List | Glossary On
Versions: 1 2 3 4 5 6 7 8 9 10 11 12 13 14 15 16 17 18 19 20 21 22 23 24 25 26 27 28 29 30 31 32 33 34 35 36 37 38 39 40 41 42 43 44 45 46 47 48 49 50
577
ASUS44 KFWD 060303
RWRTX
NORTH TEXAS HOURLY WEATHER ROUNDUP
NATIONAL WEATHER SERVICE FORT WORTH TX
900 PM CST FRI FEB 05 2016

NOTE: "FAIR" INDICATES FEW OR NO CLOUDS BELOW 12,000 FEET WITH NO
SIGNIFICANT WEATHER AND/OR OBSTRUCTIONS TO VISIBILITY.

TXZ118-119-060400-
DALLAS/FORT WORTH METROPLEX

CITY           SKY/WX    TMP DP  RH WIND       PRES   REMARKS
DFW AIRPORT    MOCLDY    48  22  35 SE10      30.26F
DALLAS LOVE    MOCLDY    48  22  35 SE12      30.28F
FTW MEACHAM    PTCLDY    49  24  37 SE12      30.25F
DAL-EXECUTIVE  CLEAR     46  22  38 SE7       30.27F
FTW-ALLIANCE   MOCLDY    48  23  37 SE12      30.25F
FTW-NAS-JRB    MOCLDY    50  21  32 SE13      30.25F
FTW-SPINKS     PTCLDY    46  24  42 SE9       30.27F
ARLINGTON      PTCLDY    50  24  36 SE12      30.27F
GRAND PRAIRIE  PTCLDY    48  22  36 SE6       30.29F
MESQUITE       CLEAR     45  22  41 SE10      30.30F WCI  39
LANCASTER      CLEAR     43  21  41 SE7       30.30F WCI  39
$$

TXZ091>094-102>105-117-120-121-131>134-060400-
NORTH CENTRAL TEXAS

CITY           SKY/WX    TMP DP  RH WIND       PRES   REMARKS
SHRMAN/DENISON MOCLDY    49  22  35 SE9       30.28F
GAINESVILLE    MOCLDY    47  24  41 SE14      30.26F
BRIDGEPORT     CLOUDY    49  27  42 SE13G18   30.24F
DECATUR        PTCLDY    47  23  38 SE13G18   30.23S
DENTON         MOCLDY    48  24  39 SE10      30.25F
MCKINNEY       PTCLDY    47  25  42 SE13      30.28F
ROCKWALL       MOCLDY    47  22  38 S7        30.29F
TERRELL        CLEAR     45  22  40 SE8       30.32F
WAXAHACHIE     CLEAR     45  26  46 SE5       30.29F
CLEBURNE       CLEAR     46  21  36 SE12      30.27S
GRANBURY       MOCLDY    49  24  37 SE7       30.26R
$$

TXZ083>090-098>101-113>116-127>130-139>142-154-155-060400-
WESTERN NORTH TEXAS

CITY           SKY/WX    TMP DP  RH WIND       PRES   REMARKS
WICHITA FALLS  CLOUDY    52  25  35 VRB5      30.20R
WF-KICKAPOO    CLOUDY    54  22  29 NW8       30.22R
VERNON         CLEAR     39  20  46 W8        30.20F WCI  33
ABILENE        CLOUDY    48  19  31 NW24G37   30.24R
ABILENE-DYESS  PTCLDY    47  19  32 W21G39    30.25R WCI  39
MINERAL WELLS  CLOUDY    49  25  39 SE14      30.22R
STEPHENVILLE   MOCLDY    47  24  40 S6        30.25S
COMANCHE       CLOUDY    49  28  44 S6        30.23R
$$

TXZ143>147-156>162-174-175-060400-
CENTRAL TEXAS

CITY           SKY/WX    TMP DP  RH WIND       PRES   REMARKS
WACO           CLOUDY    45  26  47 SE8       30.29F
WACO-MCGREGOR  CLOUDY    48  26  42 SE9       30.29F
HILLSBORO      PTCLDY    47  22  36 SE14      30.27F
CORSICANA      PTCLDY    46  26  45 SE8       30.33F
MEXIA          CLEAR     44  22  42 E3        30.32S
HEARNE         MOCLDY    47  26  44 E5        30.34R
TEMPLE         CLOUDY    49  30  48 SE8       30.31R
KILLEEN        CLOUDY    48  28  45 S6        30.28S
KILLEEN-SKYLRK CLOUDY    50  30  46 S8        30.30R
FORT HOOD      CLOUDY    50  29  43 S7        30.27R
HAMILTON       CLOUDY    46  27  47 S10       30.24F
LAMPASAS       CLOUDY    45  31  56 S3        30.27S
$$

TXZ095>097-106>112-122>126-135>138-148>153-164>167-060400-
EAST TEXAS

CITY           SKY/WX    TMP DP  RH WIND       PRES   REMARKS
PARIS          MOCLDY    39  18  41 SE8       30.33F WCI  34
SULPHUR SPRNGS CLEAR     39  23  52 CALM      30.35F
GILMER         PTCLDY    37  25  62 CALM      30.35R
MINEOLA        CLEAR     36  25  64 CALM      30.35S
TYLER          CLEAR     43  20  39 S6        30.34R WCI  39
LONGVIEW       PTCLDY    39  27  62 SE5       30.34S WCI  36
MARSHALL       CLEAR     33  22  66 CALM      30.37F
PALESTINE      PTCLDY    40  22  47 SE3       30.36R
JACKSONVILLE   CLEAR     46  19  34 CALM      30.36R
CENTER         FAIR      40  29  64 CALM      30.36R
NACOGDOCHES    CLEAR     34  25  69 CALM      30.35S
LUFKIN         CLEAR     44  27  51 S8        30.36S WCI  39
$$

SUPPLEMENTAL OBSERVATIONS (CENTRAL)

CITY           SKY/WX    TMP DP  RH WIND       PRES   REMARKS
$$

SUPPLEMENTAL OBSERVATIONS (WEST)

CITY           SKY/WX    TMP DP  RH WIND       PRES   REMARKS
$$

SUPPLEMENTAL OBSERVATIONS (EAST)

CITY           SKY/WX    TMP DP  RH WIND       PRES   REMARKS
$$

SUPPLEMENTAL OBSERVATIONS ARE A COLLECTION OF AUTOMATED INSTRUMENTS
THAT ARE MAINTAINED BY A VARIETY OF FEDERAL AND STATE AGENCIES.
CERTAIN ELEMENTS...SUCH AS HUMIDITY VALUES AND SUSTAINED WIND
SPEEDS...MAY BE APPROXIMATED.





USA.gov is the U.S. government's official web portal to all federal, state and local government web resources and services.